TimeEDT,TemperatureF,Dew PointF,Humidity,Sea Level PressureIn,VisibilityMPH,Wind Direction,Wind SpeedMPH,Gust SpeedMPH,PrecipitationIn,Events,Conditions,WindDirDegrees,DateUTC
12:53 AM,66.0,62.1,87,29.81,6.0,SSE,5.8,-,0.00,Rain,Rain,150,2012-09-18 04:53:00
1:53 AM,64.0,63.0,96,29.77,5.0,SSE,5.8,-,0.05,Rain,Light Rain,160,2012-09-18 05:53:00
2:53 AM,64.0,63.0,96,29.74,6.0,Calm,Calm,-,0.01,Rain,Light Rain,0,2012-09-18 06:53:00
3:29 AM,64.4,62.6,94,29.73,4.0,Calm,Calm,-,0.03,Rain,Light Rain,0,2012-09-18 07:29:00
3:36 AM,64.4,62.6,94,29.73,4.0,SE,3.5,-,0.03,Rain,Light Rain,130,2012-09-18 07:36:00
3:43 AM,64.4,62.6,94,29.72,4.0,SE,3.5,-,0.04,Rain,Light Rain,130,2012-09-18 07:43:00
3:53 AM,64.0,63.0,96,29.70,4.0,ESE,4.6,-,0.06,Rain,Rain,110,2012-09-18 07:53:00
4:04 AM,64.4,62.6,94,29.70,4.0,East,3.5,-,0.02,Rain,Rain,90,2012-09-18 08:04:00
4:20 AM,64.4,62.6,94,29.68,5.0,NE,3.5,-,0.03,Rain,Light Rain,50,2012-09-18 08:20:00
4:36 AM,64.4,62.6,94,29.68,5.0,Calm,Calm,-,0.06,Rain,Rain,0,2012-09-18 08:36:00
4:53 AM,64.0,63.0,96,29.65,3.0,Calm,Calm,-,0.11,Rain,Rain,0,2012-09-18 08:53:00
5:08 AM,64.4,62.6,94,29.66,4.0,Calm,Calm,-,0.04,Rain,Rain,0,2012-09-18 09:08:00
5:53 AM,63.0,62.1,97,29.63,3.0,Calm,Calm,-,0.15,Rain,Rain,0,2012-09-18 09:53:00
6:53 AM,64.0,62.1,93,29.60,7.0,Calm,Calm,-,0.12,Rain,Light Rain,0,2012-09-18 10:53:00
6:57 AM,62.6,62.6,100,29.62,7.0,Calm,Calm,-,0.00,Rain,Light Rain,0,2012-09-18 10:57:00
7:39 AM,62.6,62.6,100,29.62,1.8,Calm,Calm,-,0.09,Rain,Heavy Rain,0,2012-09-18 11:39:00
7:53 AM,63.0,62.1,97,29.61,2.0,Calm,Calm,-,0.13,Rain,Light Rain,0,2012-09-18 11:53:00
8:02 AM,62.6,62.6,100,29.62,3.0,Calm,Calm,-,0.01,Rain,Light Rain,0,2012-09-18 12:02:00
8:26 AM,62.6,62.6,100,29.63,10.0,Calm,Calm,-,0.01,,Overcast,0,2012-09-18 12:26:00
8:53 AM,64.0,62.1,93,29.61,3.0,Calm,Calm,-,0.01,Rain,Light Rain,0,2012-09-18 12:53:00
9:53 AM,64.0,63.0,96,29.63,9.0,Calm,Calm,-,0.01,,Overcast,0,2012-09-18 13:53:00
10:01 AM,64.4,62.6,94,29.64,8.0,South,3.5,-,0.00,Rain,Light Rain,190,2012-09-18 14:01:00
10:53 AM,66.0,63.0,90,29.62,10.0,SW,3.5,-,0.00,Rain,Light Rain,230,2012-09-18 14:53:00
11:12 AM,66.2,62.6,88,29.63,10.0,WSW,3.5,-,0.00,,Overcast,240,2012-09-18 15:12:00
11:17 AM,66.2,62.6,88,29.63,9.0,Variable,3.5,-,0.00,Rain,Light Rain,0,2012-09-18 15:17:00
11:53 AM,66.0,63.0,90,29.62,10.0,WSW,4.6,-,0.00,Rain,Light Rain,240,2012-09-18 15:53:00
12:19 PM,66.2,62.6,88,29.63,10.0,WSW,8.1,-,0.00,,Overcast,240,2012-09-18 16:19:00
12:28 PM,66.2,62.6,88,29.63,10.0,WSW,4.6,-,0.00,,Overcast,240,2012-09-18 16:28:00
12:53 PM,66.0,63.0,90,29.62,4.0,West,4.6,-,0.01,Rain,Light Rain,270,2012-09-18 16:53:00
1:13 PM,64.4,62.6,94,29.64,1.0,WNW,19.6,27.6,0.07,Rain,Heavy Rain,290,2012-09-18 17:13:00
1:21 PM,62.6,59.0,88,29.65,1.8,NW,11.5,27.6,0.09,Rain,Rain,320,2012-09-18 17:21:00
1:23 PM,60.8,59.0,94,29.65,2.5,NW,12.7,24.2,0.09,Rain,Rain,320,2012-09-18 17:23:00
1:30 PM,62.6,59.0,88,29.66,5.0,NW,9.2,-,0.09,Rain,Light Rain,310,2012-09-18 17:30:00
1:50 PM,62.6,59.0,88,29.67,10.0,NW,11.5,16.1,0.09,,Overcast,310,2012-09-18 17:50:00
1:53 PM,62.1,59.0,90,29.66,10.0,NW,10.4,-,0.09,,Overcast,310,2012-09-18 17:53:00
2:53 PM,63.0,57.0,81,29.68,10.0,NW,9.2,-,0.00,,Mostly Cloudy,320,2012-09-18 18:53:00
3:01 PM,62.6,57.2,82,29.69,10.0,NW,9.2,-,N/A,,Mostly Cloudy,310,2012-09-18 19:01:00
3:53 PM,62.1,53.1,72,29.72,10.0,WNW,8.1,21.9,N/A,,Overcast,300,2012-09-18 19:53:00
4:53 PM,61.0,48.9,64,29.75,10.0,NW,11.5,17.3,N/A,,Overcast,320,2012-09-18 20:53:00
5:53 PM,63.0,46.9,56,29.77,10.0,NNW,11.5,-,N/A,,Clear,330,2012-09-18 21:53:00
6:53 PM,60.1,48.0,64,29.80,10.0,NW,4.6,-,N/A,,Partly Cloudy,310,2012-09-18 22:53:00
7:53 PM,57.0,52.0,83,29.83,10.0,Calm,Calm,-,N/A,,Overcast,0,2012-09-18 23:53:00
8:53 PM,57.9,48.9,72,29.88,10.0,NW,3.5,-,N/A,,Mostly Cloudy,320,2012-09-19 00:53:00
9:53 PM,57.0,46.0,67,29.92,10.0,NW,10.4,20.7,N/A,,Mostly Cloudy,320,2012-09-19 01:53:00
10:53 PM,54.0,46.0,75,29.95,10.0,NW,5.8,-,N/A,,Partly Cloudy,310,2012-09-19 02:53:00
11:53 PM,51.1,45.0,80,29.96,10.0,NW,3.5,-,N/A,,Clear,310,2012-09-19 03:53:00